SXS324 LTAC-LTCN

Flight info

Callsign SXS324
Flight time 0h 46m
Altitude 35000
Route YUCEL UL605 POGEN
Aircraft B738/M-SDGIJ1LRWY/SB1

Departure

Time 2026-05-05 16:11
Airport Esenboğa International Airport (LTAC)

Arrival

Time 2026-05-05 16:58
Airport Kahramanmaraş Airport (LTCN)
Time Latitude Longitude Altitude Speed Heading
2026-05-05 15:25 40.12529 32.99987 3145 ft 0 kts 179°
2026-05-05 15:46 40.12531 32.99987 3145 ft 1 kts 179°
2026-05-05 15:46 40.12546 32.99987 3145 ft 2 kts 179°
2026-05-05 15:47 40.12561 32.99987 3146 ft 2 kts 180°
2026-05-05 15:47 40.12571 32.99989 3146 ft 2 kts 207°
2026-05-05 15:47 40.12586 33.00006 3147 ft 2 kts 242°
2026-05-05 15:47 40.12590 33.00023 3147 ft 0 kts 266°
2026-05-05 15:48 40.12590 33.00031 3147 ft 1 kts 271°
2026-05-05 15:48 40.12590 33.00033 3146 ft 0 kts 270°
2026-05-05 15:50 40.12590 33.00030 3146 ft 2 kts 270°
2026-05-05 15:50 40.12591 32.99946 3143 ft 15 kts 270°
2026-05-05 15:51 40.12590 32.99822 3140 ft 8 kts 269°
2026-05-05 15:51 40.12590 32.99786 3140 ft 3 kts 269°
2026-05-05 15:51 40.12583 32.99743 3139 ft 7 kts 240°
2026-05-05 15:51 40.12533 32.99692 3139 ft 9 kts 214°
2026-05-05 15:52 40.12494 32.99656 3139 ft 0 kts 215°
2026-05-05 15:54 40.12471 32.99635 3139 ft 7 kts 215°
2026-05-05 15:54 40.12431 32.99597 3139 ft 7 kts 216°
2026-05-05 15:55 40.12368 32.99536 3137 ft 13 kts 217°
2026-05-05 15:55 40.12287 32.99458 3136 ft 14 kts 217°
2026-05-05 15:55 40.12202 32.99377 3134 ft 16 kts 217°
2026-05-05 15:55 40.12107 32.99287 3133 ft 16 kts 215°
2026-05-05 15:56 40.12011 32.99197 3133 ft 16 kts 216°
2026-05-05 15:56 40.11914 32.99106 3131 ft 17 kts 214°
2026-05-05 15:56 40.11810 32.99008 3130 ft 19 kts 216°
2026-05-05 15:56 40.11700 32.98903 3128 ft 20 kts 217°
2026-05-05 15:57 40.11587 32.98788 3125 ft 21 kts 217°
2026-05-05 15:57 40.11462 32.98676 3123 ft 22 kts 216°
2026-05-05 15:57 40.11352 32.98558 3121 ft 14 kts 232°
2026-05-05 15:57 40.11346 32.98443 3119 ft 9 kts 303°
2026-05-05 15:58 40.11354 32.98428 3118 ft 0 kts 306°
2026-05-05 16:07 40.11354 32.98427 3118 ft 0 kts 306°
2026-05-05 16:07 40.11368 32.98403 3118 ft 6 kts 306°
2026-05-05 16:08 40.11411 32.98326 3116 ft 12 kts 306°
2026-05-05 16:08 40.11465 32.98225 3114 ft 14 kts 304°
2026-05-05 16:08 40.11493 32.98174 3113 ft 5 kts 306°
2026-05-05 16:08 40.11521 32.98134 3112 ft 6 kts 341°
2026-05-05 16:09 40.11554 32.98153 3113 ft 3 kts 36°
2026-05-05 16:09 40.11555 32.98154 3113 ft 0 kts 36°
2026-05-05 16:10 40.11556 32.98155 3113 ft 1 kts 36°
2026-05-05 16:10 40.11719 32.98309 3116 ft 62 kts 36°
2026-05-05 16:11 40.12242 32.98807 3122 ft 121 kts 36°
2026-05-05 16:11 40.14947 33.01451 4255 ft 174 kts 36°
2026-05-05 16:12 40.15909 33.02446 4719 ft 182 kts 37°
2026-05-05 16:12 40.17993 33.04659 5513 ft 206 kts 37°
2026-05-05 16:13 40.20486 33.09658 6705 ft 255 kts 89°
2026-05-05 16:13 40.20131 33.11953 7184 ft 270 kts 111°
2026-05-05 16:13 40.19129 33.14082 7729 ft 282 kts 126°
2026-05-05 16:14 40.16590 33.18076 9208 ft 288 kts 128°
2026-05-05 16:14 40.14056 33.22161 10596 ft 300 kts 127°
2026-05-05 16:15 40.11348 33.26644 11431 ft 332 kts 126°
2026-05-05 16:15 40.08355 33.31598 12389 ft 359 kts 127°
2026-05-05 16:16 40.04990 33.36577 12993 ft 369 kts 140°
2026-05-05 16:16 40.00244 33.38756 12992 ft 373 kts 179°
2026-05-05 16:17 39.95126 33.37376 14587 ft 377 kts 204°
2026-05-05 16:17 39.92802 33.35812 15315 ft 381 kts 211°
2026-05-05 16:18 39.87891 33.33093 16664 ft 395 kts 188°
2026-05-05 16:18 39.85161 33.33203 17346 ft 400 kts 168°
2026-05-05 16:18 39.80121 33.36344 18663 ft 408 kts 142°
2026-05-05 16:19 39.77862 33.38562 19250 ft 414 kts 141°
2026-05-05 16:19 39.75559 33.40863 19874 ft 419 kts 140°
2026-05-05 16:19 39.70902 33.45527 21073 ft 429 kts 140°
2026-05-05 16:20 39.66109 33.50318 22195 ft 440 kts 140°
2026-05-05 16:20 39.61217 33.55196 23272 ft 449 kts 140°
2026-05-05 16:21 39.56476 33.60554 24301 ft 455 kts 130°
2026-05-05 16:22 39.50404 33.70076 25831 ft 464 kts 124°
2026-05-05 16:22 39.46426 33.76717 26769 ft 472 kts 124°
2026-05-05 16:23 39.42305 33.83408 27675 ft 480 kts 126°
2026-05-05 16:23 39.40183 33.86744 28129 ft 484 kts 126°
2026-05-05 16:23 39.35850 33.93455 28962 ft 492 kts 127°
2026-05-05 16:24 39.33654 33.96836 29445 ft 493 kts 127°
2026-05-05 16:24 39.31454 34.00222 30100 ft 490 kts 127°
2026-05-05 16:24 39.27114 34.06920 31150 ft 488 kts 127°
2026-05-05 16:25 39.24936 34.10292 31585 ft 487 kts 127°
2026-05-05 16:25 39.20643 34.16933 32367 ft 484 kts 127°
2026-05-05 16:25 39.18495 34.20252 32700 ft 483 kts 127°
2026-05-05 16:26 39.14225 34.26932 33378 ft 481 kts 124°
2026-05-05 16:26 39.10503 34.34079 34093 ft 477 kts 119°
2026-05-05 16:27 39.08648 34.37606 34495 ft 476 kts 124°
2026-05-05 16:27 39.06612 34.40932 34877 ft 475 kts 128°
2026-05-05 16:27 39.04464 34.44172 34980 ft 478 kts 129°
2026-05-05 16:27 39.02283 34.47373 34983 ft 476 kts 130°
2026-05-05 16:28 38.97941 34.53760 34968 ft 473 kts 129°
2026-05-05 16:28 38.93665 34.60161 34974 ft 474 kts 129°
2026-05-05 16:29 38.89412 34.66610 34986 ft 473 kts 129°
2026-05-05 16:29 38.85170 34.73082 34983 ft 473 kts 129°
2026-05-05 16:30 38.80950 34.79528 34986 ft 472 kts 129°
2026-05-05 16:30 38.76745 34.85943 34990 ft 471 kts 129°
2026-05-05 16:31 38.72559 34.92316 34992 ft 471 kts 129°
2026-05-05 16:31 38.68348 34.98716 34993 ft 470 kts 129°
2026-05-05 16:32 38.64129 35.05114 34986 ft 471 kts 129°
2026-05-05 16:32 38.59917 35.11489 35001 ft 471 kts 129°
2026-05-05 16:33 38.55682 35.17888 34997 ft 471 kts 129°
2026-05-05 16:33 38.51470 35.24230 34996 ft 469 kts 130°
2026-05-05 16:34 38.47214 35.30507 34987 ft 470 kts 130°
2026-05-05 16:34 38.42903 35.36783 34987 ft 471 kts 131°
2026-05-05 16:35 38.38600 35.43031 34961 ft 469 kts 130°
2026-05-05 16:35 38.36484 35.46105 34709 ft 464 kts 130°
2026-05-05 16:35 38.34358 35.49193 34270 ft 460 kts 130°
2026-05-05 16:36 38.32243 35.52263 33722 ft 462 kts 130°
2026-05-05 16:36 38.30139 35.55316 33315 ft 463 kts 130°
2026-05-05 16:36 38.28024 35.58383 32850 ft 462 kts 130°
2026-05-05 16:36 38.25922 35.61428 32356 ft 461 kts 130°
2026-05-05 16:37 38.23813 35.64481 31926 ft 457 kts 130°
2026-05-05 16:37 38.21734 35.67489 31463 ft 455 kts 130°
2026-05-05 16:37 38.19650 35.70500 30989 ft 454 kts 130°
2026-05-05 16:37 38.17577 35.73493 30486 ft 454 kts 130°
2026-05-05 16:38 38.15486 35.76510 29966 ft 453 kts 130°
2026-05-05 16:38 38.13414 35.79496 29434 ft 452 kts 130°
2026-05-05 16:38 38.11351 35.82467 28905 ft 450 kts 130°
2026-05-05 16:38 38.09282 35.85443 28361 ft 447 kts 130°
2026-05-05 16:39 38.07256 35.88352 27842 ft 437 kts 130°
2026-05-05 16:39 38.05282 35.91180 27324 ft 427 kts 130°
2026-05-05 16:39 38.03351 35.93945 26833 ft 417 kts 129°
2026-05-05 16:39 38.01451 35.96666 26353 ft 408 kts 129°
2026-05-05 16:40 37.99593 35.99326 25885 ft 399 kts 129°
2026-05-05 16:40 37.97790 36.01905 25411 ft 391 kts 129°
2026-05-05 16:40 37.95987 36.04485 24938 ft 383 kts 129°
2026-05-05 16:40 37.94252 36.06966 24485 ft 375 kts 129°
2026-05-05 16:41 37.92532 36.09425 24034 ft 374 kts 129°
2026-05-05 16:41 37.90798 36.11906 23557 ft 378 kts 129°
2026-05-05 16:41 37.89079 36.14361 23112 ft 371 kts 129°
2026-05-05 16:41 37.87378 36.16785 22654 ft 368 kts 129°
2026-05-05 16:42 37.85687 36.19192 22206 ft 365 kts 129°
2026-05-05 16:42 37.84014 36.21573 21763 ft 362 kts 129°
2026-05-05 16:42 37.82351 36.23941 21319 ft 359 kts 129°
2026-05-05 16:42 37.80692 36.26305 20874 ft 356 kts 129°
2026-05-05 16:43 37.79075 36.28611 20439 ft 354 kts 129°
2026-05-05 16:43 37.77433 36.30952 19991 ft 352 kts 129°
2026-05-05 16:43 37.75837 36.33224 19551 ft 349 kts 129°
2026-05-05 16:43 37.74218 36.35527 19107 ft 347 kts 129°
2026-05-05 16:44 37.72619 36.37801 18674 ft 346 kts 129°
2026-05-05 16:44 37.71028 36.40062 18230 ft 351 kts 129°
2026-05-05 16:44 37.69405 36.42371 17777 ft 351 kts 129°
2026-05-05 16:44 37.67783 36.44673 17336 ft 349 kts 129°
2026-05-05 16:45 37.66189 36.46931 16886 ft 348 kts 129°
2026-05-05 16:45 37.64568 36.49226 16428 ft 346 kts 129°
2026-05-05 16:45 37.62971 36.51482 15967 ft 345 kts 129°
2026-05-05 16:45 37.61393 36.53715 15535 ft 343 kts 129°
2026-05-05 16:46 37.59804 36.55957 15112 ft 341 kts 129°
2026-05-05 16:46 37.58253 36.58145 14692 ft 339 kts 129°
2026-05-05 16:46 37.56667 36.60380 14250 ft 337 kts 129°
2026-05-05 16:46 37.55113 36.62572 13816 ft 336 kts 129°
2026-05-05 16:47 37.53569 36.64748 13384 ft 335 kts 129°
2026-05-05 16:47 37.52016 36.66935 12961 ft 333 kts 129°
2026-05-05 16:47 37.50598 36.69199 12509 ft 330 kts 120°
2026-05-05 16:47 37.49652 36.71773 12088 ft 324 kts 104°
2026-05-05 16:48 37.49088 36.74503 11661 ft 321 kts 99°
2026-05-05 16:48 37.48633 36.77229 11235 ft 320 kts 98°
2026-05-05 16:48 37.48174 36.79989 10814 ft 319 kts 99°
2026-05-05 16:48 37.47689 36.82702 10397 ft 318 kts 100°
2026-05-05 16:49 37.47189 36.85334 10147 ft 307 kts 101°
2026-05-05 16:49 37.46686 36.87883 10008 ft 292 kts 101°
2026-05-05 16:49 37.46202 36.90315 9666 ft 286 kts 101°
2026-05-05 16:49 37.45729 36.92713 9297 ft 281 kts 101°
2026-05-05 16:50 37.45264 36.95075 8952 ft 276 kts 101°
2026-05-05 16:50 37.44872 36.97423 8612 ft 270 kts 94°
2026-05-05 16:50 37.44957 36.99749 8284 ft 266 kts 71°
2026-05-05 16:50 37.45815 37.01752 8022 ft 262 kts 46°
2026-05-05 16:51 37.47087 37.03383 7788 ft 260 kts 42°
2026-05-05 16:51 37.48364 37.04997 7556 ft 256 kts 43°
2026-05-05 16:51 37.49584 37.06582 7328 ft 253 kts 44°
2026-05-05 16:51 37.50825 37.08202 7096 ft 258 kts 44°
2026-05-05 16:52 37.52084 37.09837 6797 ft 261 kts 43°
2026-05-05 16:52 37.53324 37.11444 6504 ft 255 kts 44°
2026-05-05 16:52 37.54549 37.13028 6226 ft 248 kts 44°
2026-05-05 16:52 37.55748 37.14545 5984 ft 239 kts 40°
2026-05-05 16:53 37.57045 37.15717 5742 ft 225 kts 22°
2026-05-05 16:53 37.58509 37.15924 5596 ft 207 kts 347°
2026-05-05 16:53 37.59761 37.15211 5584 ft 187 kts 327°
2026-05-05 16:53 37.60659 37.14167 5677 ft 169 kts 299°
2026-05-05 16:54 37.60783 37.12682 5579 ft 180 kts 257°
2026-05-05 16:54 37.60190 37.11276 5256 ft 181 kts 237°
2026-05-05 16:54 37.59376 37.10059 4815 ft 181 kts 227°
2026-05-05 16:54 37.58504 37.09016 4589 ft 168 kts 223°
2026-05-05 16:55 37.57628 37.08076 4287 ft 159 kts 221°
2026-05-05 16:55 37.56788 37.07143 3806 ft 164 kts 230°
2026-05-05 16:55 37.56224 37.05949 3432 ft 157 kts 250°
2026-05-05 16:55 37.55859 37.04675 3059 ft 154 kts 253°
2026-05-05 16:56 37.55565 37.03417 2805 ft 148 kts 257°
2026-05-05 16:56 37.55306 37.02167 2623 ft 146 kts 256°
2026-05-05 16:56 37.55051 37.00924 2467 ft 146 kts 256°
2026-05-05 16:56 37.54792 36.99692 2274 ft 144 kts 255°
2026-05-05 16:57 37.54535 36.98462 2058 ft 144 kts 256°
2026-05-05 16:57 37.54279 36.97247 1871 ft 143 kts 255°
2026-05-05 16:57 37.54022 36.96025 1697 ft 141 kts 255°
2026-05-05 16:57 37.53810 36.95027 1651 ft 87 kts 255°
2026-05-05 16:58 37.53703 36.94522 1631 ft 37 kts 255°
2026-05-05 16:58 37.53645 36.94269 1619 ft 22 kts 238°
2026-05-05 16:58 37.53585 36.94153 1613 ft 14 kts 310°
2026-05-05 16:58 37.53645 36.94240 1617 ft 22 kts 76°
2026-05-05 16:59 37.53682 36.94424 1627 ft 20 kts 76°
2026-05-05 16:59 37.53716 36.94588 1634 ft 20 kts 75°
2026-05-05 16:59 37.53762 36.94798 1642 ft 28 kts 74°
2026-05-05 16:59 37.53822 36.95071 1653 ft 36 kts 75°
2026-05-05 17:00 37.53887 36.95383 1666 ft 34 kts 75°
2026-05-05 17:00 37.53944 36.95655 1679 ft 27 kts 76°
2026-05-05 17:00 37.53966 36.95784 1684 ft 10 kts 101°
2026-05-05 17:00 37.53914 36.95827 1686 ft 9 kts 163°
2026-05-05 17:01 37.53833 36.95857 1687 ft 12 kts 165°
2026-05-05 17:01 37.53772 36.95914 1688 ft 10 kts 121°
2026-05-05 17:01 37.53731 36.95941 1688 ft 0 kts 162°